| time (UTC) | temp F | wind direction | speed MPH | gust MPH | rain 1hr in | rain 24hr in | rain mn in | humidity % | barometer mb |
| 20260905170032 | 69 | 20 | 1.0 | 7.0 | 0.00 | 0.01 | 0.01 | 65 | 1012.8 |
| 20260905164536 | 69 | 284 | 1.0 | 9.0 | 0.00 | 0.01 | 0.01 | 68 | 1012.9 |
| 20260905163029 | 69 | 23 | 2.0 | 8.0 | 0.00 | 0.01 | 0.01 | 65 | 1013.0 |
| 20260905161528 | 68 | 15 | 2.0 | 9.0 | 0.00 | 0.01 | 0.01 | 67 | 1012.9 |
| 20260905160043 | 69 | 28 | 1.0 | 4.0 | 0.00 | 0.01 | 0.01 | 68 | 1013.0 |
| 20260905154524 | 69 | 325 | 1.0 | 6.0 | 0.00 | 0.01 | 0.01 | 69 | 1012.9 |
| 20260905153023 | 69 | 360 | 0.0 | 4.0 | 0.00 | 0.01 | 0.01 | 71 | 1013.0 |
| 20260905151517 | 67 | 301 | 3.0 | 8.0 | 0.00 | 0.01 | 0.01 | 74 | 1012.9 |
| 20260905150016 | 66 | 149 | 1.0 | 6.0 | 0.00 | 0.01 | 0.01 | 78 | 1012.9 |
| 20260905144514 | 66 | 11 | 1.0 | 7.0 | 0.00 | 0.01 | 0.01 | 78 | 1012.8 |
| 20260905143017 | 66 | 306 | 0.0 | 7.0 | 0.00 | 0.01 | 0.01 | 81 | 1012.9 |
| 20260905141514 | 65 | 11 | 0.0 | 7.0 | 0.00 | 0.01 | 0.01 | 84 | 1012.7 |
| 20260905140009 | 63 | 5 | 0.0 | 6.0 | 0.00 | 0.01 | 0.01 | 88 | 1012.9 |
| 20260905134508 | 62 | 355 | 1.0 | 4.0 | 0.00 | 0.01 | 0.01 | 88 | 1012.7 |
| 20260905133005 | 62 | 348 | 2.0 | 6.0 | 0.00 | 0.01 | 0.01 | 88 | 1012.8 |
| 20260905131501 | 61 | 103 | 0.0 | 4.0 | 0.00 | 0.01 | 0.01 | 93 | 1012.6 |
| 20260905130001 | 60 | 5 | 2.0 | 4.0 | 0.00 | 0.01 | 0.01 | 92 | 1012.6 |
| 20260905124602 | 60 | 145 | 0.0 | 4.0 | 0.00 | 0.01 | 0.01 | 93 | 1012.8 |
| 20260905123014 | 60 | 27 | 0.0 | 5.0 | 0.00 | 0.01 | 0.01 | 94 | 1012.7 |
| 20260905121514 | 60 | 49 | 1.0 | 3.0 | 0.00 | 0.01 | 0.01 | 93 | 1012.7 |
| 20260905120013 | 61 | 32 | 0.0 | 6.0 | 0.00 | 0.01 | 0.01 | 93 | 1012.8 |
| 20260905114513 | 60 | 348 | 0.0 | 5.0 | 0.01 | 0.01 | 0.01 | 93 | 1012.7 |
| 20260905113002 | 60 | 39 | 1.0 | 5.0 | 0.01 | 0.01 | 0.01 | 94 | 1012.7 |
| 20260905111610 | 59 | 5 | 0.0 | 4.0 | 0.01 | 0.01 | 0.01 | 94 | 1012.3 |
| 20260905110100 | 59 | 70 | 1.0 | 6.0 | 0.01 | 0.01 | 0.01 | 94 | 1011.9 |
| 20260905104555 | 59 | 38 | 1.0 | 4.0 | 0.01 | 0.01 | 0.01 | 94 | 1011.8 |
| 20260905101557 | 59 | 5 | 1.0 | 6.0 | 0.00 | 0.00 | 0.00 | 93 | 1011.4 |
| 20260905100056 | 60 | 17 | 3.0 | 7.0 | 0.00 | 0.00 | 0.00 | 93 | 1011.3 |
| 20260905094556 | 60 | 11 | 0.0 | 5.0 | 0.00 | 0.00 | 0.00 | 94 | 1011.3 |
| 20260905091619 | 59 | 360 | 0.0 | 1.0 | 0.00 | 0.00 | 0.00 | 95 | 1011.4 |
| 20260905090117 | 59 | 360 | 0.0 | 0.0 | 0.00 | 0.00 | 0.00 | 94 | 1011.3 |
| 20260905084605 | 60 | 360 | 0.0 | 0.0 | 0.00 | 0.00 | 0.00 | 94 | 1011.3 |
| 20260905081551 | 61 | 360 | 0.0 | 1.0 | 0.00 | 0.00 | 0.00 | 93 | 1011.2 |
| 20260905080054 | 61 | 43 | 0.0 | 5.0 | 0.00 | 0.00 | 0.00 | 93 | 1011.3 |
| 20260905074547 | 61 | 5 | 1.0 | 4.0 | 0.00 | 0.00 | 0.00 | 94 | 1011.3 |
| 20260905071550 | 61 | 348 | 0.0 | 3.0 | 0.00 | 0.00 | 0.00 | 93 | 1011.6 |
| 20260905070048 | 62 | 309 | 0.0 | 2.0 | 0.00 | 0.00 | 0.00 | 93 | 1011.8 |
| 20260905064546 | 61 | 307 | 0.0 | 1.0 | 0.00 | 0.00 | 0.00 | 93 | 1011.8 |
| 20260905061555 | 61 | 306 | 0.0 | 2.0 | 0.00 | 0.00 | 0.00 | 92 | 1012.2 |
| 20260905060036 | 62 | 306 | 0.0 | 2.0 | 0.00 | 0.00 | 0.00 | 92 | 1012.4 |
| 20260905054534 | 62 | 340 | 0.0 | 1.0 | 0.00 | 0.00 | 0.00 | 91 | 1012.3 |
| 20260905051536 | 64 | 9 | 1.0 | 4.0 | 0.00 | 0.00 | 0.00 | 87 | 1012.4 |
| 20260905050034 | 64 | 5 | 0.0 | 4.0 | 0.00 | 0.00 | 0.00 | 84 | 1012.7 |
| 20260905044534 | 64 | 24 | 1.0 | 4.0 | 0.00 | 0.00 | 0.00 | 84 | 1012.6 |
| 20260905041532 | 65 | 5 | 0.0 | 3.0 | 0.00 | 0.00 | 0.00 | 83 | 1012.5 |
| 20260905040032 | 65 | 57 | 1.0 | 4.0 | 0.00 | 0.00 | 0.00 | 83 | 1012.5 |
| 20260905034531 | 65 | 53 | 0.0 | 2.0 | 0.00 | 0.00 | 0.00 | 84 | 1012.3 |
| 20260905031528 | 65 | 66 | 0.0 | 4.0 | 0.00 | 0.00 | 0.00 | 84 | 1012.1 |
| 20260905030036 | 65 | 11 | 0.0 | 3.0 | 0.00 | 0.00 | 0.00 | 84 | 1012.1 |
| 20260905024528 | 65 | 355 | 0.0 | 4.0 | 0.00 | 0.00 | 0.00 | 84 | 1012.1 |
| 20260905021526 | 67 | 135 | 1.0 | 7.0 | 0.00 | 0.00 | 0.00 | 83 | 1012.2 |
| 20260905020028 | 68 | 9 | 1.0 | 7.0 | 0.00 | 0.00 | 0.00 | 82 | 1012.3 |
| 20260905014526 | 68 | 11 | 0.0 | 3.0 | 0.00 | 0.00 | 0.00 | 84 | 1012.4 |
| 20260905011524 | 69 | 34 | 0.0 | 4.0 | 0.00 | 0.00 | 0.00 | 82 | 1012.1 |
| 20260905010024 | 69 | 36 | 0.0 | 5.0 | 0.00 | 0.00 | 0.00 | 82 | 1012.1 |
| 20260905004536 | 69 | 24 | 0.0 | 2.0 | 0.00 | 0.00 | 0.00 | 82 | 1012.2 |
| 20260905001542 | 70 | 19 | 0.0 | 3.0 | 0.00 | 0.00 | 0.00 | 81 | 1011.9 |
| 20260905000020 | 70 | 5 | 0.0 | 1.0 | 0.00 | 0.00 | 0.00 | 80 | 1011.6 |
| 20260904234529 | 70 | 5 | 0.0 | 0.0 | 0.00 | 0.00 | 0.00 | 79 | 1011.7 |
| 20260904231530 | 71 | 5 | 0.0 | 3.0 | 0.00 | 0.00 | 0.00 | 78 | 1011.5 |
| 20260904230021 | 72 | 17 | 0.0 | 2.0 | 0.00 | 0.00 | 0.00 | 76 | 1011.4 |
| 20260904224520 | 73 | 16 | 0.0 | 1.0 | 0.00 | 0.00 | 0.00 | 77 | 1011.4 |
| 20260904221516 | 74 | 125 | 0.0 | 4.0 | 0.00 | 0.00 | 0.00 | 74 | 1011.4 |
| 20260904220016 | 75 | 323 | 0.0 | 2.0 | 0.00 | 0.00 | 0.00 | 73 | 1011.4 |
| 20260904214516 | 75 | 323 | 0.0 | 3.0 | 0.00 | 0.00 | 0.00 | 72 | 1011.1 |
| 20260904211517 | 75 | 342 | 0.0 | 3.0 | 0.00 | 0.00 | 0.00 | 76 | 1010.9 |
| 20260904210014 | 73 | 355 | 2.0 | 5.0 | 0.00 | 0.00 | 0.00 | 75 | 1011.2 |
| 20260904204512 | 73 | 5 | 0.0 | 5.0 | 0.00 | 0.00 | 0.00 | 78 | 1011.7 |
| 20260904201512 | 73 | 33 | 0.0 | 3.0 | 0.00 | 0.00 | 0.00 | 77 | 1011.7 |
| 20260904200011 | 73 | 28 | 1.0 | 5.0 | 0.00 | 0.00 | 0.00 | 76 | 1011.7 |
| 20260904194511 | 75 | 329 | 1.0 | 6.0 | 0.00 | 0.00 | 0.00 | 75 | 1011.8 |
| 20260904191511 | 76 | 28 | 0.0 | 6.0 | 0.00 | 0.00 | 0.00 | 75 | 1012.2 |
| 20260904190008 | 73 | 327 | 1.0 | 4.0 | 0.00 | 0.00 | 0.00 | 81 | 1012.2 |
| 20260904184508 | 70 | 51 | 0.0 | 6.0 | 0.00 | 0.00 | 0.00 | 83 | 1012.6 |
| 20260904181510 | 71 | 19 | 1.0 | 5.0 | 0.00 | 0.00 | 0.00 | 81 | 1012.7 |
| 20260904180005 | 72 | 11 | 1.0 | 4.0 | 0.00 | 0.00 | 0.00 | 80 | 1013.0 |
| 20260904174506 | 72 | 11 | 0.0 | 4.0 | 0.00 | 0.00 | 0.00 | 79 | 1013.1 |
| 20260904171509 | 73 | 323 | 0.0 | 3.0 | 0.00 | 0.00 | 0.00 | 78 | 1013.1 |